View from above orbital plane
|
View from above satellite
|
Ground track
|
The orbit data is extracted from the following two-line orbital elements,
1 00050U 60009B 22187.80898584 -.00000072 00000-0 13914-3 0 9991
2 00050 47.2329 315.5152 0113308 39.1585 321.7338 12.20121345761713
Epoch (UTC): | 06 July 2022 19:24:56 |
Eccentricity: | 0.0113308 |
inclination: | 47.2329° |
perigee height: | 1502 km |
apogee height: | 1682 km |
right ascension of ascending node: | 315.5152° |
argument of perigee: | 39.1585° |
revolutions per day: | 12.20121345 |
mean anomaly at epoch: | 321.7338° |
orbit number at epoch: | 76171 |
The dashed part of the orbit path shows where the satellite is in the earth's shadow,
|
|